Location: Rottenacker
(48.2350°N, 9.6886°E)
Time: 15:44:19
(UTC+02:00)

Tiangong 2 - Pass Details

Date: 24 May 2018
Orbit: 292 x 298 km, 42.8° (Epoch: 17 June)

Event Time Altitude Azimuth Distance (km) Brightness Sun altitude
Rises 22:58:33 0° 244° (WSW) 1,972 4.8 -14.2°
Reaches altitude 10° 23:00:43 10° 228° (SW) 1,150 3.4 -14.4°
Enters shadow 23:01:17 14° 219° (SW) 971 2.9 -14.4°
